Regional Weather Roundup
Issued by NWS

Home | Current Version | Previous Version | Text Only | Print | Product List | Glossary Off
Versions: 1 2 3 4 5 6 7 8 9 10 11 12 13 14 15 16 17 18 19 20 21 22 23 24 25 26 27 28 29 30 31 32 33 34 35 36 37 38 39 40 41 42 43 44 45 46 47 48 49 50

000
ASUS43 KMPX 250001
RWRMN
WEATHER ROUNDUP FOR MINNESOTA
NATIONAL WEATHER SERVICE TWIN CITIES/CHANHASSEN MN
700 PM CDT FRI OCT 24 2014


NOTE: "FAIR" INDICATES FEW OR NO CLOUDS BELOW 12,000 FEET WITH NO
SIGNIFICANT WEATHER AND/OR OBSTRUCTIONS TO VISIBILITY. N/A MEANS
CURRENT SKY AND/OR WEATHER CONDITIONS ARE NOT AVAILABLE.

MNZ060>063-068>070-250100-
   Twin Cities Metro

CITY           SKY/WX    TMP DP  RH WIND       PRES   REMARKS
TWIN CITIES    CLOUDY    64  53  67 S3        29.85R
6HR MIN TEMP:  62; 6HR MAX TEMP:  67;

ST PAUL        CLOUDY    57  54  89 S7        29.86R
CRYSTAL        CLOUDY    63  53  70 S3        29.83S
BLAINE         MOCLDY    63  54  72 S5        29.84S
LAKEVILLE      CLOUDY    61  54  77 CALM      29.86R
EDEN PRAIRIE   CLOUDY    63  53  70 SW5       29.85R
6HR MIN TEMP:  63; 6HR MAX TEMP:  69;

SOUTH ST PAUL  CLOUDY    58  55  89 CALM      29.85S
LAKE ELMO      FAIR      54  52  94 S5        29.86R FOG
$$
MNZ001>005-007-008-013>017-022>024-027-028-250100-
   Northwest Minnesota

CITY           SKY/WX    TMP DP  RH WIND       PRES   REMARKS
BEMIDJI        PTCLDY    64  40  40 W14       29.77R
HALLOCK        CLEAR     63  32  31 W16       29.75R
ROSEAU         CLEAR     63  36  36 W15G21    29.72R
WARROAD        PTCLDY    63  36  36 W17G28    29.70R
THIEF RVR FALL PTCLDY    63  30  29 W13G22    29.80R
CROOKSTON      PTCLDY    61  34  36 W14       29.82R
FOSSTON        PTCLDY    63  32  31 W18G25    29.82R
DETROIT LAKES  MOCLDY    68  39  34 W14       29.83R
MOORHEAD       MOCLDY    70  32  24 W13       29.85R
PARK RAPIDS    PTCLDY    55  42  61 SW7       29.80R
MAHNOMEN       FAIR      65  40  40 NW9       29.80R
$$
MNZ006-009>011-018-025>026-250100-
   North Central Minnesota

CITY           SKY/WX    TMP DP  RH WIND       PRES   REMARKS
BAUDETTE       MOCLDY    64  33  31 W12G23    29.69R
FLAG ISLAND    PTCLDY    63  36  36 W20G28    29.64R
INTL FALLS     MOCLDY    64  41  42 SW10      29.66R
6HR MIN TEMP:  64; 6HR MAX TEMP:  70;

WASKISH        MOCLDY    57  45  62 SW14      29.73R
BIG FORK       PTCLDY    63  39  42 SW9       29.73S
LONGVILLE      PTCLDY    63  39  42 SW5       29.77S
GRAND RAPIDS   MOCLDY    64  37  36 SW5       29.76S
CRANE LAKE     CLEAR     63  39  42 S3        29.69R
ORR            PTCLDY    63  36  36 SW3       29.68R
COOK           PTCLDY    64  39  39 SW7       29.71S
WALKER         FAIR      65  39  39 W8        29.77R
$$
MNZ012-019>021-037-250100-
   Northeast Minnesota

CITY           SKY/WX    TMP DP  RH WIND       PRES   REMARKS
DULUTH         PTCLDY    62  50  64 SW13      29.77R
6HR MIN TEMP:  62; 6HR MAX TEMP:  69;

ELY            CLEAR     63  39  42 SW8       29.70F
HIBBING        PTCLDY    60  39  45 SW3       29.74S
EVELETH        PTCLDY    59  41  51 SW7       29.74F
DULUTH HARBOR  PTCLDY    63  54  72 SW14      29.76S
TWO HARBORS    CLEAR     63  43  48 SW8       29.73R
SILVER BAY     CLEAR     61  52  72 SW6       29.72R
GRAND MARAIS     N/A     48  46  93 SW6       29.71S
G MARAIS ARPRT PTCLDY    50  45  81 SW5       29.72F
$$
MNZ029>031-032-039>041-046>048-054>057-064-250100-
   West Central Minnesota

CITY           SKY/WX    TMP DP  RH WIND       PRES   REMARKS
FERGUS FALLS   MOCLDY    66  37  34 W13       29.84R
WHEATON        PTCLDY    63  43  48 W7        29.87R
MORRIS         PTCLDY    63  43  48 W7        29.86R
ALEXANDRIA     CLOUDY    62  42  47 W6        29.85R
ELBOW LAKE     FAIR      66  43  42 W13       29.84R
WADENA         MOCLDY    61  43  51 SW6       29.81S
GLENWOOD       MOCLDY    61  43  51 SW8       29.86R
APPLETON       PTCLDY    63  39  42 W8        29.87R
BENSON         PTCLDY    61  43  51 W6        29.87R
ORTONVILLE     PTCLDY    68  41  37 W6        29.88R
MADISON        PTCLDY    68  37  32 W6        29.89R
WILLMAR          N/A     61  39  44 SW7       29.88R
$$
MNZ033>034-036-042>043-049>051-058-059-250100-
   Central Minnesota

CITY           SKY/WX    TMP DP  RH WIND       PRES   REMARKS
ST CLOUD       CLOUDY    63  47  55 SW5       29.83R
6HR MIN TEMP:  63; 6HR MAX TEMP:  72;

SAUK CENTRE    FAIR      61  44  53 SW5       29.85R
PAYNESVILLE    CLOUDY    60  41  49 S6        29.86R
AITKIN         PTCLDY    64  39  39 SW7       29.78R
PINE RIVER     PTCLDY    63  43  48 SW3       29.83S
BRAINERD       MOCLDY    59  39  47 SW8       29.81R
STAPLES        MOCLDY    61  39  44 SW5       29.82R
LONG PRAIRIE   FAIR      61  43  51 SW5       29.84S
LITTLE FALLS   CLOUDY    59  39  47 SW3       29.83R
LITCHFIELD     MOCLDY    63  45  51 CALM      29.86S
BUFFALO        CLOUDY    60  51  71 SW3       29.86R
MAPLE LAKE     CLOUDY    62  49  62 S3        29.85S
$$
MNZ037-044-045-052-053-250100-
   East Central Minnesota

CITY           SKY/WX    TMP DP  RH WIND       PRES   REMARKS
PRINCETON      CLOUDY    59  52  77 CALM      29.84R
MORA           MOCLDY    55  46  71 SW5       29.84R
CAMBRIDGE      MOCLDY    63  50  63 S3        29.82R
RUSH CITY      MOCLDY    56  51  82 S3        29.83R
MOOSE LAKE     MOCLDY    55  50  82 SW5       29.78R
HINCKLEY       FAIR      57  52  82 CALM      29.81S
CLOQUET        MOCLDY    61  50  67 SW8       29.78S
MCGREGOR       MOCLDY    59  46  63 SW6       29.79R
$$
MNZ071>073-080-081-089-090-097-098-250100-
   Southwest Minnesota

CITY           SKY/WX    TMP DP  RH WIND       PRES   REMARKS
MONTEVIDEO     PTCLDY    66  39  37 W3        29.88R
GRANITE FALLS  PTCLDY    58  44  61 W7        29.89S
CANBY          PTCLDY    64  40  41 W10       29.90S
MARSHALL       PTCLDY    61  39  44 W12       29.89R
REDWOOD FALLS  PTCLDY    67  42  40 SW3       29.87R
OLIVIA         PTCLDY    59  45  58 SW3       29.87R
PIPESTONE      MOCLDY    66  37  34 NW5       29.94R
WINDOM         CLEAR     61  37  41 W6        29.92R
WORTHINGTON    CLEAR     59  39  47 W3        29.94R
JACKSON        PTCLDY    61  37  41 W5        29.92R
TRACY          PTCLDY    65  41  42 W5        29.91R
SLAYTON        CLEAR     59  41  50 CALM      29.93R
$$
MNZ065>067-074>077-082>085-091>093-250100-
   South Central Minnesota

CITY           SKY/WX    TMP DP  RH WIND       PRES   REMARKS
MANKATO        MOCLDY    63  48  59 W3        29.89R
NEW ULM        PTCLDY    61  48  63 W5        29.88S
ST JAMES       PTCLDY    63  43  48 CALM      29.91R
FAIRMONT       PTCLDY    63  10  13 CALM      29.90R
GLENCOE        CLOUDY    65  53  65 SW3       29.86R
FARIBAULT      CLOUDY    57  52  82 SW3       29.88R
OWATONNA       MOCLDY    57  52  82 SW5       29.89R
WASECA         MOCLDY    55  45  67 W5        29.91R
ALBERT LEA     MOCLDY    61  55  82 CALM      29.90R
$$
MNZ078>079-086>088-094>096-250100-
   Southeast Minnesota

CITY           SKY/WX    TMP DP  RH WIND       PRES   REMARKS
ROCHESTER      CLOUDY    56  54  93 S7        29.90S FOG
6HR MIN TEMP:  55; 6HR MAX TEMP:  60;

RED WING       CLOUDY    55  54  94 CALM      29.87R FOG
STANTON        CLOUDY    57  53  85 S6        29.86R
DODGE CENTER   CLOUDY    54  54 100 S6        29.89R FOG
WINONA         CLOUDY    59  54  82 CALM      29.89F
AUSTIN         FOG       55  55 100 CALM      29.90R VSB 1
PRESTON        CLOUDY    57  55  93 S3        29.91S FOG
$$
ABBREVIATIONS USED IN REMARKS
   TC - TEMPERATURES IN CELSIUS
  WCI - WIND CHILL INDEX
   HX - HEAT INDEX
  VSB - VISIBILITY
$$



USA.gov is the U.S. government's official web portal to all federal, state and local government web resources and services.